Main page
METAR-TAF:

METAR-TAF

Airports :

Thomas County Airport

Thedford, Nebraska, United States

latitude: 41-57-43N, longitude: 100-34-08W, elevation: 2926 ft

Current weather observation

The report was made 19 minutes ago, at 16:15 UTC
Wind 14 mph from the North
Temperature 70°F
Humidity 53%
Pressure 30.21 in. Hg
Visibility: 10 miles
Clear sky

METAR: KTIF 281615Z AUTO 36012KT 10SM CLR 21/11 A3021 RMK AO2 T02100113

Time: 11:34 (16:34 UTC)


TAF: missing

Weather observations and forecasts of more than 4000 airports (METAR and TAF reports).

The available stations are represented by yellow and red dots on the map.

Hover mouse over dot to see the name of the station.

Then click to see weather observations and forecasts.

To change the map : click on the green buttons with a black cross to zoom in, on the green button with a dash to zoom out, or on the green arrows for adjacent maps.


METAR-TAF: